Wetbulb
33.32 34.64 34.90 34.96 34.73 33.48 31.08 35.10 30.44 32.65 35.08 38.19 39.81 40.24 42.31 40.30 40.77 41.65 42.98 43.18 43.36 43.94 43.53 43.59 44.13 45.15 46.01 47.48 47.41 47.56 47.61 47.22 48.04 48.30 47.47 46.77 46.32 46.50 46.87 46.41 46.65 46.78 46.04 45.20
31.60 35.89 34.60 33.46 36.07 35.87 35.19 35.93 35.13 35.69 35.63 42.58 44.10 44.42 41.10 42.90 43.48 43.28 41.88 43.79 44.10 44.82 45.38 44.84 45.25 46.17 47.67 47.99 47.70 47.64 47.96 48.05 48.73 46.79 46.99 47.00 47.12 46.17 46.00 46.24 46.26 45.90 45.33 45.51
26.62 32.86 33.51 31.77 36.28 36.97 38.30 38.56 37.01 33.96 39.59 43.40 42.08 42.31 43.49 44.26 44.35 43.02 44.14 43.32 43.81 44.46 46.15 47.66 47.52 47.83 47.41 48.56 48.19 47.54 48.11 48.76 48.31 47.71 47.40 47.22 47.39 46.26 46.57 46.29 45.46 45.44 45.35 44.86
27.11 30.18 24.93 33.91 37.38 37.84 37.92 39.58 40.22 40.68 41.60 42.90 43.30 44.36 42.73 42.50 42.99 44.57 43.96 44.11 44.37 44.79 44.96 46.70 48.08 46.94 48.48 46.92 46.76 47.75 48.00 48.68 48.70 48.00 48.04 47.40 46.64 47.18 47.03 46.58 46.36 45.44 45.03 44.58
28.33 26.42 34.81 37.59 40.22 37.44 35.04 35.86 38.77 38.57 41.11 42.89 43.34 38.77 41.63 43.84 44.30 44.55 46.06 46.34 45.99 45.38 45.09 45.80 46.42 47.44 47.11 45.45 46.78 47.05 47.61 48.19 48.58 48.41 48.09 46.94 46.93 47.50 47.47 46.18 45.10 45.07 44.87 44.67
31.68 24.92 26.61 33.48 38.98 43.40 40.35 32.32 41.80 41.64 42.33 39.99 38.46 34.73 39.25 44.38 43.39 43.59 44.21 45.02 44.14 43.86 44.10 43.95 45.38 46.09 45.51 45.92 46.01 46.34 48.07 48.72 49.42 48.44 48.38 47.35 48.22 47.74 46.81 47.90 47.59 46.35 45.42 45.35
33.49 32.28 34.80 38.55 41.34 41.03 31.04 34.75 39.92 41.79 41.14 39.09 38.90 41.32 43.82 44.14 44.83 43.02 43.21 43.98 44.43 43.50 44.08 44.70 44.60 44.14 44.42 45.07 44.90 48.21 49.20 49.11 47.40 47.37 48.19 48.65 48.19 47.07 46.95 47.10 46.05 45.46 45.27 44.62
31.71 31.49 29.83 37.94 39.07 36.79 37.32 42.03 41.97 41.70 42.23 41.92 42.83 42.91 43.16 44.47 45.38 45.78 45.37 45.68 46.18 45.22 45.22 45.40 44.75 43.72 44.14 44.08 47.53 46.73 46.57 46.22 46.46 47.21 47.99 47.35 46.62 46.26 46.14 46.82 46.11 44.66 44.14 43.19
32.35 33.41 37.70 38.01 36.12 40.20 40.57 38.85 39.76 40.77 43.46 44.27 43.17 42.30 44.01 44.99 44.62 45.90 46.00 45.57 45.46 44.72 44.63 44.88 44.68 44.06 44.27 45.35 45.80 45.69 44.99 44.89 45.26 45.51 45.98 45.59 45.71 44.68 44.49 45.98 46.26 44.79 44.42 43.60
31.53 34.29 35.49 37.17 39.37 40.68 42.43 40.46 41.02 41.30 43.59 44.42 43.88 43.40 42.58 43.72 45.57 45.04 45.49 45.67 44.99 44.46 44.22 44.12 44.65 44.39 44.26 44.78 45.33 45.11 44.38 44.05 43.80 43.94 43.88 44.18 46.19 46.10 46.07 45.53 45.53 44.69 43.90 42.98
32.82 34.57 35.86 37.53 39.06 39.82 40.49 41.86 41.22 41.64 43.22 43.09 43.75 43.45 43.23 44.66 44.48 45.68 46.00 45.59 43.82 44.08 44.20 44.60 44.22 44.37 44.73 44.93 44.70 44.14 43.98 43.75 43.30 43.42 44.49 43.36 44.76 45.56 46.57 47.12 47.71 45.84 45.43 44.04
29.23 35.47 35.57 36.13 39.42 41.37 40.80 40.88 41.60 40.89 41.69 43.86 44.12 43.31 43.76 44.48 46.20 45.43 45.13 45.75 44.97 44.15 43.59 44.28 44.13 44.44 44.66 44.71 44.40 44.07 43.67 43.30 43.20 43.09 42.94 43.30 43.23 42.00 46.47 46.40 47.32 46.56 46.29 43.92
34.38 38.24 38.62 39.62 40.78 41.93 41.37 41.97 42.48 42.00 42.36 42.78 43.74 42.58 43.17 44.68 46.02 46.83 45.64 43.95 43.93 44.52 45.01 44.51 43.92 44.13 44.70 44.98 45.03 44.29 43.62 43.45 43.33 43.86 42.81 42.33 42.97 43.27 41.36 42.83 46.43 46.80 47.05 46.90
38.87 38.74 36.45 38.53 37.65 41.27 41.76 42.04 43.37 43.17 44.16 43.02 42.34 42.94 43.29 44.86 44.90 44.49 44.56 46.15 45.17 44.66 44.59 44.46 44.27 44.76 46.10 44.78 44.92 44.33 43.46 45.36 43.36 43.33 42.85 42.27 42.96 42.68 42.87 41.64 40.41 39.62 45.55 44.77
37.32 38.92 38.64 39.66 39.91 40.00 41.25 41.51 40.43 40.35 41.70 41.86 42.87 42.19 43.57 44.66 45.15 45.11 45.77 44.47 43.87 43.36 43.52 43.80 43.66 44.94 46.41 44.81 44.74 44.09 43.17 42.76 42.78 42.09 41.70 42.17 40.95 40.83 41.05 39.87 39.59 38.33 38.54 42.56
37.10 37.56 38.01 37.55 37.86 38.85 39.49 39.83 39.45 39.65 40.69 41.51 42.00 42.62 44.90 45.65 45.89 45.68 45.27 42.54 41.05 43.20 43.75 43.06 43.25 45.42 44.62 44.35 44.33 43.44 42.83 44.05 43.30 41.36 40.97 40.39 40.33 40.29 38.76 38.62 38.14 38.14 38.12 38.41
34.50 33.80 35.29 35.64 37.10 37.90 38.47 40.01 40.67 41.02 41.42 41.27 41.81 43.56 45.13 45.33 44.58 43.84 44.50 43.67 41.84 43.31 44.11 42.90 43.91 43.77 44.36 44.43 43.91 43.26 41.80 41.84 43.49 40.33 40.61 40.57 39.86 39.42 38.55 37.99 37.24 36.66 36.63 37.68
38.30 38.26 38.41 38.07 37.53 37.68 38.26 39.24 40.24 40.81 40.95 42.28 43.18 44.29 44.36 44.03 43.71 44.50 44.95 43.11 41.83 41.41 41.59 42.86 42.92 43.43 43.73 43.96 43.39 41.82 41.24 40.83 40.55 40.28 38.98 38.79 38.19 38.06 37.57 36.80 36.32 35.94 35.21 37.95
38.52 38.14 38.73 39.57 40.05 40.10 40.26 39.67 40.01 40.92 41.56 42.33 42.97 42.53 43.13 43.35 44.25 44.71 45.36 41.41 41.13 41.67 44.89 43.10 43.27 43.10 43.09 43.73 43.52 41.03 40.69 39.96 38.89 38.43 38.95 40.18 37.72 36.49 36.32 36.12 35.76 35.77 36.29 37.35
37.88 38.96 39.40 39.57 40.93 41.05 40.16 41.06 41.69 41.17 41.69 42.21 42.94 42.63 42.21 42.89 43.68 43.85 44.30 42.31 43.97 45.17 45.89 42.68 42.55 42.29 42.46 42.10 44.21 40.91 40.31 39.95 39.09 38.07 38.30 37.29 36.89 36.19 36.08 36.87 36.08 36.32 36.78 36.98
34.86 35.61 35.87 35.85 36.33 38.24 39.75 41.12 40.44 39.91 41.10 41.64 40.96 41.07 41.65 42.73 43.65 43.82 41.31 40.83 44.12 42.93 42.64 41.98 41.46 41.21 40.19 41.01 41.93 38.96 38.62 37.90 37.98 37.98 38.20 36.58 36.86 36.21 36.26 36.90 37.05 37.71 37.60 37.88
32.55 32.63 32.48 33.47 34.15 35.16 37.42 37.72 38.39 39.07 39.26 39.83 40.64 41.20 41.23 41.23 41.99 42.03 42.52 41.87 44.16 42.48 40.08 39.09 38.59 40.02 39.51 42.11 38.17 37.72 37.54 37.48 37.22 37.29 36.74 37.08 36.87 36.83 37.19 38.04 37.75 38.03 37.78 37.23
31.82 31.70 33.46 33.81 33.67 34.87 34.27 33.35 33.36 34.20 34.21 35.34 36.43 38.35 39.48 40.75 38.96 39.21 39.11 38.03 37.38 39.00 36.06 36.41 40.19 42.53 42.58 37.91 37.93 37.68 37.67 37.83 37.43 37.17 37.74 38.45 38.37 38.28 38.00 37.60 37.66 37.28 37.28 36.76
31.46 31.20 31.14 32.33 34.38 33.37 31.65 33.19 34.02 34.47 34.64 35.37 35.68 36.85 37.38 37.14 38.44 39.59 38.46 39.45 39.93 39.43 40.18 41.52 41.72 41.25 39.90 37.74 37.60 37.42 37.58 37.71 37.49 37.62 38.22 38.73 37.87 37.94 37.82 37.32 36.54 36.25 35.90 35.08
30.22 29.69 30.15 29.83 30.14 30.45 30.98 31.65 32.50 32.47 32.18 32.10 32.64 33.86 34.94 36.62 36.53 37.03 38.45 38.60 39.28 38.93 38.70 40.05 39.47 39.33 37.66 37.39 37.04 36.85 36.55 36.33 36.18 36.14 35.98 35.74 35.46 35.23 34.88 34.66 34.29 33.76 33.32 33.20
29.01 27.80 28.30 28.64 29.08 30.18 30.08 30.11 28.60 29.67 29.60 28.60 29.41 31.02 32.02 32.73 33.06 32.93 33.33 33.80 33.39 34.33 34.00 34.54 34.65 34.50 34.56 34.51 34.54 33.95 33.50 33.38 33.02 32.86 32.54 32.07 32.01 32.04 32.07 31.97 31.96 31.89 31.73 31.55
26.85 29.97 26.73 26.60 27.89 28.74 29.60 28.48 27.03 27.17 27.72 27.42 26.54 28.30 28.85 28.97 29.70 29.90 30.88 29.97 30.09 30.02 30.41 31.30 31.70 32.52 31.85 31.90 31.72 31.67 31.84 32.00 32.65 31.75 31.71 31.51 31.20 30.74 30.27 29.90 29.52 29.24 29.56 29.67
MSLP
1016.46 1016.09 1015.92 1015.65 1015.57 1015.66 1015.86 1015.27 1014.56 1011.75 1010.49 1009.39 1009.12 1008.68 1007.88 1007.56 1007.16 1007.00 1006.92 1006.98 1006.79 1006.68 1006.73 1006.76 1006.88 1007.01 1007.29 1007.54 1007.89 1008.29 1008.96 1009.42 1009.43 1009.85 1010.35 1010.88 1011.38 1011.77 1012.20 1012.68 1013.02 1013.33 1013.72 1014.00
1016.67 1015.90 1015.53 1014.73 1014.21 1014.10 1014.01 1013.66 1012.28 1012.01 1008.51 1009.20 1007.99 1007.88 1007.44 1006.96 1006.69 1006.46 1006.31 1006.22 1005.80 1005.76 1005.85 1005.89 1005.87 1005.99 1006.20 1006.30 1006.79 1007.40 1007.98 1008.15 1008.54 1008.96 1009.47 1009.90 1010.31 1010.88 1011.53 1012.04 1012.46 1012.89 1013.23 1013.46
1017.18 1016.29 1015.40 1012.73 1011.86 1011.98 1011.53 1010.91 1010.76 1010.06 1006.46 1007.38 1007.17 1006.88 1006.45 1006.29 1006.16 1005.86 1005.38 1005.30 1004.90 1004.65 1004.51 1004.34 1004.21 1004.16 1004.66 1004.84 1005.50 1006.24 1006.62 1006.95 1007.46 1007.95 1008.36 1008.72 1009.32 1009.98 1010.54 1011.17 1011.75 1012.23 1012.62 1012.93
1018.06 1017.16 1015.16 1010.76 1009.89 1009.93 1009.69 1009.33 1008.95 1008.02 1007.36 1006.42 1006.06 1005.98 1006.45 1006.04 1005.40 1004.73 1004.31 1003.95 1003.73 1003.67 1003.59 1003.27 1003.11 1003.34 1003.09 1003.73 1004.42 1005.08 1005.48 1005.72 1006.09 1006.58 1007.11 1007.71 1008.39 1008.94 1009.34 1010.00 1010.70 1011.43 1011.92 1012.21
1018.16 1016.84 1012.71 1010.18 1009.99 1009.85 1009.59 1008.35 1008.28 1008.09 1007.28 1006.16 1006.23 1006.65 1005.95 1005.01 1004.44 1003.91 1003.19 1002.94 1002.76 1002.64 1002.53 1002.44 1002.60 1002.43 1002.75 1003.20 1003.46 1004.07 1004.43 1004.58 1004.80 1005.14 1005.75 1006.52 1007.27 1007.74 1008.37 1009.02 1009.81 1010.36 1010.91 1011.62
1017.63 1016.06 1013.43 1010.02 1008.43 1008.74 1009.18 1008.28 1006.67 1007.12 1006.66 1006.65 1006.91 1006.82 1005.43 1004.61 1003.96 1003.39 1002.85 1002.48 1002.44 1002.13 1002.15 1002.11 1001.85 1001.99 1002.58 1002.72 1002.88 1003.03 1003.10 1003.05 1003.21 1003.94 1004.51 1005.17 1005.64 1006.50 1007.34 1007.91 1008.42 1009.32 1010.20 1010.69
1016.23 1015.10 1012.04 1010.43 1009.64 1009.47 1010.18 1008.92 1007.01 1007.08 1006.98 1006.94 1006.91 1006.35 1005.08 1004.42 1003.85 1003.36 1002.92 1002.32 1001.95 1001.81 1001.81 1001.71 1001.63 1001.80 1002.05 1002.15 1002.14 1001.71 1001.68 1002.02 1002.56 1002.99 1003.44 1003.74 1004.48 1005.25 1005.89 1006.88 1007.67 1008.44 1009.26 1010.01
1015.99 1014.98 1012.72 1011.31 1010.38 1011.40 1011.98 1009.88 1009.30 1009.33 1008.93 1008.12 1007.53 1006.52 1005.60 1004.42 1003.80 1003.20 1002.75 1002.29 1001.93 1001.90 1001.64 1001.44 1001.41 1001.72 1001.71 1001.65 1000.86 1001.22 1001.36 1001.54 1001.83 1002.08 1002.49 1003.12 1003.75 1004.50 1005.22 1005.96 1006.73 1007.65 1008.59 1009.46
1017.43 1014.44 1012.37 1012.85 1013.22 1012.94 1012.58 1011.70 1010.50 1009.89 1008.90 1008.74 1008.10 1006.87 1005.63 1004.50 1003.58 1003.14 1002.57 1002.20 1001.95 1001.80 1001.66 1001.49 1001.32 1001.40 1001.35 1000.66 1000.76 1000.74 1000.88 1000.94 1001.12 1001.50 1001.96 1002.41 1003.15 1003.93 1004.81 1005.36 1006.01 1006.88 1007.74 1008.59
1017.57 1014.42 1013.53 1012.47 1011.25 1011.47 1011.45 1011.05 1009.80 1009.56 1008.97 1008.63 1008.18 1007.01 1005.91 1004.88 1003.96 1003.41 1002.85 1002.20 1001.67 1001.70 1001.62 1001.38 1001.07 1000.97 1000.91 1000.58 1000.49 1000.49 1000.67 1000.72 1000.86 1001.21 1001.52 1001.90 1002.45 1003.06 1003.73 1004.47 1005.17 1005.88 1006.73 1007.64
1015.33 1014.74 1013.83 1012.30 1011.72 1011.31 1010.40 1009.86 1009.16 1008.13 1007.95 1007.13 1006.86 1006.61 1005.94 1005.20 1004.47 1003.84 1002.95 1002.09 1001.95 1001.97 1001.42 1000.82 1000.86 1000.58 1000.22 1000.11 1000.20 1000.40 1000.47 1000.53 1000.79 1001.08 1001.43 1001.84 1002.09 1002.37 1002.60 1002.88 1003.01 1003.94 1005.03 1006.12
1013.82 1013.04 1012.74 1011.29 1010.37 1010.31 1009.70 1008.85 1008.38 1008.13 1007.23 1006.77 1006.04 1005.13 1004.99 1004.51 1003.86 1003.64 1002.97 1002.12 1001.61 1001.24 1001.36 1000.77 1000.55 1000.13 999.80 999.78 999.97 1000.20 1000.43 1000.62 1000.85 1001.08 1001.31 1001.62 1002.13 1002.69 1002.71 1002.74 1003.03 1003.44 1004.22 1005.01
1011.99 1011.46 1010.21 1010.45 1009.96 1009.13 1008.41 1007.92 1007.90 1007.31 1006.58 1006.13 1005.43 1005.51 1004.93 1004.31 1003.68 1003.10 1002.70 1002.17 1001.58 1001.18 1000.53 1000.26 1000.15 999.80 999.10 999.11 999.30 999.62 999.85 999.98 1000.33 1000.76 1001.15 1001.57 1001.90 1002.32 1002.95 1003.46 1003.54 1003.76 1004.24 1004.92
1011.10 1011.07 1009.84 1009.33 1007.90 1007.64 1007.52 1007.18 1006.55 1006.05 1005.48 1004.80 1004.75 1004.40 1004.28 1003.63 1003.11 1002.50 1002.05 1001.52 1000.87 1000.53 1000.24 999.92 999.57 999.14 998.03 998.42 998.70 998.95 999.14 999.47 999.84 1000.07 1000.51 1001.04 1001.47 1001.99 1002.33 1002.87 1003.66 1004.49 1004.96 1005.35
1009.03 1008.34 1008.31 1007.58 1007.06 1006.87 1006.39 1006.02 1005.41 1004.96 1004.34 1003.75 1003.40 1003.58 1003.05 1002.30 1001.74 1001.17 1000.76 1000.33 1000.24 1000.02 999.75 999.48 999.14 998.62 997.70 997.77 998.07 998.34 998.73 998.99 999.34 999.70 1000.05 1000.44 1000.97 1001.51 1001.97 1002.76 1003.57 1004.44 1005.17 1005.65
1008.07 1007.76 1007.02 1006.53 1005.77 1004.78 1004.65 1004.34 1003.99 1003.37 1002.91 1002.47 1002.29 1001.99 1001.63 1000.81 1000.40 1000.01 999.72 999.83 999.96 999.81 999.00 998.88 998.51 997.93 997.72 997.63 997.35 997.51 997.66 998.24 998.68 999.29 999.80 1000.20 1000.71 1001.26 1001.92 1002.64 1003.50 1004.27 1004.91 1005.47
1007.42 1006.09 1005.69 1005.22 1004.64 1003.80 1003.25 1003.00 1002.41 1002.10 1001.60 1001.27 1000.75 1000.68 1000.47 999.57 999.22 999.14 998.72 998.88 999.02 998.62 998.04 998.06 997.28 996.80 996.88 996.61 996.99 997.17 997.24 997.84 998.41 999.10 999.62 999.95 1000.39 1000.91 1001.55 1002.34 1003.13 1003.89 1004.49 1004.90
1005.96 1005.05 1004.28 1003.95 1003.31 1003.01 1002.23 1001.61 1001.14 1000.59 1000.04 999.73 999.53 999.39 998.83 998.02 997.88 997.59 997.53 997.67 997.68 997.33 996.91 996.18 996.05 995.84 995.44 995.71 996.11 996.41 996.77 997.05 997.85 998.31 998.98 999.69 1000.19 1000.72 1001.45 1002.22 1002.97 1003.70 1004.32 1004.81
1005.59 1004.75 1003.75 1002.96 1002.41 1001.80 1001.27 1000.00 999.44 998.91 998.61 998.33 997.89 997.42 997.05 996.74 996.40 996.30 996.48 996.53 996.75 996.17 994.61 994.76 994.55 994.29 994.84 995.12 995.32 995.64 996.25 996.73 997.17 997.94 998.52 999.16 999.99 1000.55 1001.21 1001.92 1002.67 1003.26 1003.92 1004.59
1004.90 1004.01 1003.31 1002.41 1001.69 1001.13 1000.30 999.43 998.46 997.64 996.95 996.56 996.27 996.07 995.89 995.53 995.19 995.28 995.17 995.54 995.12 994.38 993.96 994.05 994.04 994.12 994.41 994.85 994.94 995.20 995.79 996.15 996.34 997.07 997.99 998.84 999.56 1000.29 1001.03 1001.68 1002.42 1003.01 1003.59 1004.20
1004.43 1003.64 1002.89 1002.37 1001.20 1000.34 999.86 999.25 998.36 997.22 996.32 995.89 995.50 994.86 994.66 994.24 994.34 994.29 994.56 994.57 993.36 993.82 993.56 993.23 993.21 993.52 993.89 994.22 994.73 995.05 995.53 996.13 996.60 996.91 997.57 998.56 999.47 1000.22 1000.91 1001.52 1002.20 1002.91 1003.68 1004.20
1004.48 1003.62 1002.84 1001.75 1000.73 1000.11 999.63 999.00 998.15 997.13 996.37 995.66 995.06 994.35 993.83 993.34 993.19 993.29 993.26 993.15 992.11 992.78 993.12 992.93 992.30 993.16 993.65 994.24 994.80 995.02 995.35 995.98 996.69 997.31 998.20 998.95 999.76 1000.64 1001.36 1001.76 1002.39 1003.02 1003.76 1004.32
1004.94 1004.07 1003.10 1002.12 1001.10 1000.07 999.40 998.84 998.28 997.66 996.92 996.05 995.32 994.63 993.83 993.21 993.14 993.17 992.94 992.65 992.50 992.83 993.41 992.66 992.66 993.67 993.92 994.63 995.12 995.42 995.60 996.08 996.74 997.43 998.16 998.91 999.67 1000.52 1001.50 1002.21 1002.69 1003.42 1003.95 1004.37
1005.44 1004.55 1003.72 1002.73 1001.61 1000.69 999.90 999.07 998.46 997.88 997.28 996.64 995.84 994.94 994.11 993.61 993.72 993.67 993.51 993.22 993.15 993.75 993.85 993.04 993.20 994.10 994.89 995.85 996.28 996.09 996.16 996.75 997.37 998.11 998.80 999.73 1000.06 1001.18 1001.85 1002.47 1003.13 1003.71 1004.16 1004.78
1006.05 1005.27 1004.34 1003.33 1002.37 1001.56 1000.85 1000.15 999.45 998.79 998.24 997.71 997.17 996.50 995.74 995.25 995.15 995.10 994.66 994.80 994.99 994.73 994.82 994.94 994.56 995.20 995.98 996.90 997.54 997.85 997.41 998.08 999.00 999.55 1000.09 1000.60 1001.27 1002.21 1002.78 1003.20 1003.63 1004.10 1004.73 1005.26
1006.82 1006.23 1005.48 1004.70 1003.84 1002.97 1002.15 1001.36 1000.80 1000.22 999.65 999.15 998.80 998.38 997.81 997.69 997.49 997.16 996.90 996.72 996.65 996.70 997.00 996.79 996.90 997.33 997.83 998.39 999.08 999.29 999.30 999.80 1000.45 1001.00 1001.30 1001.79 1002.30 1002.91 1003.42 1003.94 1004.56 1005.07 1005.46 1006.00
1007.92 1007.07 1006.46 1005.78 1005.06 1004.46 1003.76 1003.10 1002.56 1002.11 1001.62 1001.03 1000.49 1000.37 999.82 999.56 999.41 999.32 999.26 998.89 998.52 998.58 998.75 998.91 999.23 999.57 999.92 1000.55 1001.08 1001.25 1001.21 1001.73 1002.11 1002.37 1002.58 1002.94 1003.42 1003.82 1004.47 1005.00 1005.36 1005.58 1006.08 1006.36
Wind_Speed
7 7 5 7 7 8 10 15 12 1 19 8 11 13 14 8 9 9 9 9 9 9 9 8 8 8 8 10 9 10 11 11 15 11 10 9 9 9 8 8 8 7 7 7
5 8 8 13 14 14 14 16 18 14 35 15 22 20 16 19 17 16 11 11 11 9 9 10 11 11 11 12 12 11 12 15 12 9 10 12 10 9 8 8 8 7 8 7
6 4 9 19 15 20 19 17 10 18 29 22 19 20 20 20 17 15 16 11 12 12 11 13 13 15 13 15 9 13 14 14 12 11 12 12 11 9 11 11 7 8 8 7
5 3 15 5 0 4 16 16 16 22 19 22 20 17 8 9 15 19 16 15 14 11 8 10 10 8 13 8 11 13 14 14 13 13 14 11 11 13 11 9 12 8 8 8
7 8 22 31 24 9 4 9 4 10 17 22 15 4 11 12 13 19 19 15 13 11 9 8 8 10 9 8 11 11 13 14 14 15 14 12 14 15 11 10 8 9 6 8
7 6 15 3 7 9 7 11 15 10 16 7 3 3 7 8 7 10 12 10 9 9 7 7 9 6 7 8 10 13 14 17 16 13 15 14 16 14 9 11 12 9 7 8
19 16 16 6 8 5 3 9 2 3 2 2 5 7 7 10 12 5 8 9 7 5 7 7 6 3 7 8 10 15 14 12 8 11 15 16 14 10 12 12 9 10 9 7
9 15 27 11 4 11 9 16 17 15 17 19 16 13 9 11 10 10 9 7 6 5 7 6 4 4 7 9 12 7 8 8 9 12 12 9 12 10 9 12 12 11 9 6
6 5 13 2 4 11 6 9 12 13 18 16 17 15 16 13 10 9 9 7 5 5 8 6 5 5 7 8 6 7 7 9 9 8 9 8 11 10 7 10 10 10 9 8
8 11 18 27 29 16 12 17 20 11 14 12 17 14 12 13 15 9 9 9 4 5 7 8 5 5 7 7 5 5 7 7 6 7 7 7 7 8 9 10 9 9 9 8
16 18 22 24 19 17 23 20 19 19 17 18 12 11 8 13 12 13 13 9 4 8 8 9 5 7 6 6 4 5 6 5 5 5 7 6 6 8 9 11 13 14 11 9
17 25 20 24 26 23 20 24 23 21 22 19 14 15 13 15 14 12 13 12 10 7 7 9 7 8 6 5 5 5 5 4 4 4 5 5 6 4 9 7 11 10 13 10
25 28 29 25 25 25 26 26 25 23 20 18 20 16 20 15 14 14 13 9 8 10 9 8 7 8 7 6 7 7 7 6 5 5 5 5 6 8 7 6 8 10 14 14
22 22 27 27 26 27 22 22 22 23 22 18 16 22 20 20 13 12 13 14 10 9 9 9 8 10 9 7 7 7 6 7 5 6 6 5 6 6 7 9 8 5 6 8
31 31 30 30 29 26 24 23 25 25 24 24 22 19 22 21 18 16 13 11 9 8 10 8 9 13 12 6 7 8 6 5 5 4 5 6 6 6 6 6 7 6 4 4
24 24 27 27 29 31 27 27 25 25 23 23 22 22 21 17 18 16 12 8 6 11 11 9 10 13 7 7 7 6 6 9 8 6 6 6 6 7 6 6 7 7 6 6
22 25 21 21 23 27 26 23 24 23 23 21 24 23 20 16 15 14 13 10 10 13 13 10 13 8 8 8 8 6 5 6 9 5 6 6 6 7 7 7 7 6 5 6
22 24 25 24 22 22 25 25 23 23 21 23 23 22 20 17 16 16 13 8 9 11 11 11 9 9 7 7 7 6 6 7 6 7 6 7 6 6 7 6 6 6 4 5
12 16 18 20 17 17 23 22 21 23 22 22 20 19 17 17 19 19 16 7 10 12 18 6 11 8 7 10 9 6 6 7 7 6 6 10 7 6 7 7 7 6 6 6
17 16 17 19 20 17 18 17 22 21 20 19 19 18 19 20 19 19 15 14 15 14 13 8 8 7 8 8 13 6 7 8 9 9 8 7 7 7 6 8 7 7 6 6
19 18 18 20 19 19 17 15 14 15 17 15 16 18 18 19 18 16 12 11 21 9 12 9 6 5 4 5 8 5 6 6 7 8 9 8 9 7 7 7 7 7 6 5
19 18 18 18 18 18 14 13 14 13 14 13 12 14 15 17 17 16 16 15 11 6 4 5 3 6 5 10 4 6 7 8 7 7 7 7 7 7 6 7 7 6 5 5
15 16 15 14 15 15 13 8 8 8 10 9 9 11 11 9 6 8 10 4 2 2 1 1 6 10 14 5 5 7 8 9 9 8 8 8 8 8 7 6 6 6 5 5
12 12 13 13 11 9 10 11 9 9 9 9 10 10 7 2 3 4 4 7 10 5 4 8 15 17 13 5 6 7 9 10 10 9 10 12 9 8 7 7 6 5 5 6
12 13 13 13 12 9 11 11 8 9 11 12 13 13 15 12 8 7 8 10 16 12 12 19 24 23 11 10 9 9 11 10 9 9 9 9 9 8 6 6 6 6 5 4
12 9 9 14 12 10 10 9 9 10 9 11 12 12 12 11 11 12 12 16 14 17 11 11 12 13 12 12 11 10 10 10 9 8 9 7 7 6 6 6 6 5 4 3
10 17 11 11 12 12 12 13 11 13 13 11 13 12 14 14 17 16 19 14 14 15 14 14 13 16 12 12 11 10 10 9 11 8 8 8 8 7 7 6 5 4 3 3
Wind_Direction
245 236 215 218 210 195 195 229 216 334 251 264 264 272 284 297 292 288 281 289 263 252 244 240 226 211 206 215 200 189 197 201 216 211 203 198 201 203 203 195 204 201 196 210
260 283 240 253 241 237 230 237 250 261 267 266 269 271 273 273 276 280 263 260 263 243 241 232 221 217 221 217 206 184 202 215 215 199 196 204 205 199 193 199 197 192 201 200
280 269 320 277 235 230 241 225 226 236 257 274 270 261 264 277 279 271 270 256 258 242 229 233 223 215 212 215 191 193 202 212 208 203 206 205 201 187 199 198 180 195 199 197
259 31 266 263 296 234 234 245 238 253 266 266 268 276 315 268 266 271 256 254 254 254 244 240 234 219 221 189 187 197 208 212 208 199 209 199 190 203 199 185 190 188 196 200
238 223 275 280 287 275 208 268 265 243 258 262 280 12 292 257 258 259 267 262 255 247 238 252 226 225 210 193 196 198 210 215 211 204 202 191 199 205 199 179 178 187 178 187
218 218 250 353 2 233 256 288 248 285 272 273 73 336 267 291 302 282 265 265 265 251 250 245 250 230 204 218 204 208 214 217 216 201 201 198 205 197 185 192 197 175 181 188
234 239 258 231 273 337 250 256 301 46 359 203 199 210 253 304 303 275 281 293 292 257 246 255 276 218 215 218 217 222 223 224 202 193 203 206 202 186 187 186 170 173 177 181
230 235 248 351 17 244 327 325 9 1 347 332 320 297 287 281 284 297 304 294 287 293 283 283 265 195 238 230 240 229 216 205 203 203 206 198 186 188 183 179 179 173 168 176
288 306 319 9 338 309 278 306 319 325 324 320 313 306 299 292 284 284 291 283 277 269 291 292 268 221 255 255 231 231 214 215 208 198 196 180 182 177 166 178 180 178 178 182
294 278 305 310 312 308 280 295 300 300 297 304 308 307 301 301 308 302 291 293 270 266 274 276 282 259 239 274 260 233 231 230 210 196 192 181 184 178 180 180 182 177 178 186
248 260 276 274 274 286 293 297 298 307 301 299 309 306 311 323 316 307 305 297 253 277 282 285 277 267 267 266 234 244 249 242 213 195 188 184 189 186 191 199 189 180 188 174
258 272 265 275 279 282 289 291 287 287 295 291 292 296 305 304 305 299 298 307 303 267 248 274 271 281 273 225 202 218 237 231 212 192 184 174 164 109 42 144 133 119 140 149
251 253 262 262 267 273 267 270 279 285 282 279 286 288 293 285 279 288 292 283 281 281 289 285 270 269 255 223 197 210 226 207 191 186 178 173 173 171 149 57 105 135 148 150
260 265 271 266 264 265 270 268 271 280 281 274 278 290 285 275 259 260 267 272 276 285 290 291 295 286 277 195 202 226 227 214 195 186 179 170 177 171 158 155 150 136 133 132
253 250 259 271 279 270 268 269 273 274 272 276 276 271 275 263 266 260 257 260 262 267 270 268 264 267 269 216 206 217 203 204 194 180 169 165 151 153 149 139 140 136 118 115
271 263 260 260 263 269 265 264 260 262 264 268 270 267 261 262 263 264 264 238 228 262 252 247 254 259 265 223 227 219 201 198 175 170 160 160 161 161 150 148 145 155 160 157
276 272 263 262 262 265 266 264 261 260 262 262 262 265 261 255 259 255 260 258 234 248 251 238 249 250 230 210 205 214 183 161 175 156 173 171 164 163 154 152 157 158 162 163
268 266 269 266 270 274 275 269 267 264 258 258 258 256 256 257 255 264 256 238 245 247 235 238 240 252 242 213 201 191 181 165 167 172 152 157 160 149 150 147 145 149 149 162
312 300 293 280 272 277 287 275 269 270 263 257 256 257 260 264 265 266 265 237 248 264 273 238 236 242 246 235 195 170 174 170 158 155 158 147 142 141 144 148 153 151 150 150
285 283 281 282 280 278 278 276 275 268 258 255 254 255 257 258 261 263 263 249 251 251 264 240 240 239 234 218 188 173 177 181 168 154 152 149 149 147 142 141 143 144 146 145
298 297 299 293 296 298 287 286 284 288 286 267 257 255 254 257 257 255 250 253 259 242 246 222 205 227 204 177 177 160 153 151 156 152 148 142 136 135 138 139 139 141 142 133
308 307 306 306 306 302 300 308 293 286 282 280 275 264 258 259 258 257 250 246 267 249 244 223 162 184 163 155 144 139 134 129 126 120 118 121 124 125 126 127 126 125 131 131
315 317 310 307 302 308 316 325 324 321 316 319 307 288 269 267 284 254 251 219 182 154 183 120 134 153 135 105 120 123 117 118 115 114 118 119 117 117 119 121 115 119 122 130
331 331 333 330 328 332 337 337 334 345 355 2 1 356 327 283 37 38 52 82 98 109 95 99 106 98 84 69 82 95 97 100 102 102 101 103 97 98 105 103 100 104 102 97
352 347 350 354 357 356 352 353 2 15 23 29 26 22 28 30 50 35 49 61 63 68 70 83 87 84 80 81 77 77 84 81 80 87 88 88 90 93 94 96 92 91 85 90
360 5 2 7 3 10 9 14 22 21 28 40 38 33 39 39 42 45 54 59 56 58 54 53 56 64 62 62 62 62 66 71 73 76 84 84 86 85 84 82 76 79 81 77
12 20 13 14 17 12 27 28 28 31 29 30 42 33 40 41 38 40 41 44 49 51 49 48 48 51 58 59 56 51 56 60 65 70 74 75 72 74 74 75 76 73 73 72